Date,TemperatureHighF,TemperatureAvgF,TemperatureLowF,DewpointHighF,DewpointAvgF,DewpointLowF,HumidityHigh,HumidityAvg,HumidityLow,PressureMaxIn,PressureMinIn,WindSpeedMaxMPH,WindSpeedAvgMPH,GustSpeedMaxMPH,PrecipitationSumIn
2013-2-1,51.0,41.8,33.2,46.0,40.2,33.0,99,94,80,30.36,30.26,5,1,8,0.01
2013-2-2,43.5,34.9,27.8,41.0,34.0,27.0,99,96,91,30.33,30.27,3,0,7,0.00
2013-2-3,45.9,41.2,31.9,43.0,40.2,31.0,99,96,90,30.35,30.25,5,1,8,0.01
2013-2-4,49.0,42.0,34.8,44.0,40.0,34.0,100,92,80,30.25,29.96,4,0,7,0.00
2013-2-5,48.4,44.1,41.4,46.0,41.9,40.0,97,92,83,30.08,29.94,9,3,19,0.22
2013-2-6,49.9,44.2,39.4,43.0,40.7,38.0,96,88,74,30.12,29.86,13,2,20,0.14
2013-2-7,45.6,38.2,30.4,41.0,36.3,30.0,98,93,75,30.16,29.96,7,1,12,0.20
2013-2-8,41.6,35.3,30.1,37.0,34.2,30.0,99,95,83,30.30,30.17,3,0,6,0.01
2013-2-9,43.2,38.5,32.3,40.0,37.2,32.0,99,95,85,30.32,30.28,6,0,7,0.10
2013-2-10,42.9,40.9,39.4,40.0,39.1,37.0,99,93,85,30.36,30.32,2,0,6,0.00
2013-2-11,44.8,41.6,38.1,41.0,38.5,37.0,95,89,76,30.41,30.33,4,1,9,0.01
2013-2-12,53.1,46.6,42.9,48.0,44.1,41.0,97,91,81,30.50,30.41,7,2,12,0.00
2013-2-13,50.9,47.0,44.4,46.0,43.1,40.0,94,86,72,30.52,30.45,8,2,11,0.00
2013-2-14,55.6,44.2,33.2,44.0,39.9,32.0,99,85,63,30.57,30.49,4,1,9,0.00
2013-2-15,56.9,44.4,39.0,46.0,41.4,38.0,98,90,65,30.49,30.23,7,2,10,0.00
2013-2-16,48.8,41.5,35.4,46.0,39.6,34.0,98,93,81,30.30,30.23,7,1,10,0.05
2013-2-17,45.1,37.6,31.9,39.0,34.0,30.0,98,87,63,30.32,30.11,2,0,4,0.00
2013-2-18,45.8,37.7,30.5,38.0,34.3,30.0,98,88,67,30.11,29.75,6,1,13,0.06
2013-2-19,50.6,40.3,33.4,41.0,36.7,32.0,98,87,64,30.01,29.68,7,1,11,0.01
2013-2-20,45.9,38.0,31.5,40.0,35.8,31.0,98,92,74,30.13,30.02,7,1,14,0.14
2013-2-21,42.5,39.3,35.1,40.0,37.9,34.0,97,94,89,30.23,30.13,12,3,15,0.11
2013-2-22,43.5,41.3,37.1,43.0,39.2,34.0,97,92,85,30.21,29.94,17,4,23,0.64
2013-2-23,45.2,37.0,30.2,42.0,34.9,29.0,98,92,76,30.47,30.12,8,2,11,0.27
2013-2-24,49.6,40.4,33.0,37.0,34.8,32.0,98,82,55,30.47,30.09,7,2,12,0.01
2013-2-25,48.4,40.3,32.3,40.0,36.9,31.0,97,88,60,30.41,30.07,11,2,20,0.21
2013-2-26,49.5,40.2,32.9,37.0,34.3,31.0,97,81,49,30.42,30.27,6,1,9,0.00
2013-2-27,49.7,44.7,39.9,44.0,40.4,37.0,95,85,73,30.32,30.24,9,2,15,0.02
2013-2-28,54.3,50.3,45.1,52.0,48.4,44.0,96,93,87,30.46,30.22,10,3,16,0.08